This is the latest recevied weather packets stored in our database for station/object KB0BDN-13. If no packets are shown the sender has not sent any weather packets the latest 10 day(s).
| Time | Temp. | Humidity | Pressure | Rain* | Wind** | Luminosity | Snow |
|---|---|---|---|---|---|---|---|
| 1777650426 | 3.33° C | 54% | 1013.6 hPa | 0 mm | - | - | - |
| 1777649527 | 2.78° C | 55% | 1013.7 hPa | 0 mm | - | - | - |
| 1777648626 | 2.78° C | 57% | 1013.8 hPa | 0 mm | - | - | - |
| 1777647726 | 2.22° C | 57% | 1013.8 hPa | 0 mm | - | - | - |
| 1777646827 | 1.67° C | 58% | 1013.8 hPa | 0 mm | - | - | - |
| 1777645926 | 1.67° C | 60% | 1013.8 hPa | 0 mm | - | - | - |
| 1777645026 | 1.11° C | 62% | 1013.9 hPa | 0 mm | - | - | - |
| 1777644126 | 1.11° C | 65% | 1013.9 hPa | 0 mm | - | - | - |
| 1777643226 | 0.56° C | 66% | 1013.9 hPa | 0 mm | - | - | - |
| 1777642326 | 0° C | 68% | 1013.9 hPa | 0 mm | - | - | - |
| 1777641426 | 0° C | 71% | 1013.9 hPa | 0 mm | - | - | - |
| 1777640526 | -0.56° C | 76% | 1013.9 hPa | 0 mm | - | - | - |
| 1777639626 | -1.67° C | 83% | 1013.9 hPa | 0 mm | - | - | - |
| 1777638726 | -2.22° C | 93% | 1013.8 hPa | 0 mm | - | - | - |
| 1777637826 | -3.89° C | 94% | 1013.8 hPa | 0 mm | - | - | - |
| 1777636926 | -5° C | 94% | 1013.6 hPa | 0 mm | - | - | - |
| 1777636026 | -5.56° C | 93% | 1013.4 hPa | 0 mm | - | - | - |
| 1777635126 | -6.67° C | 93% | 1013.4 hPa | 0 mm | - | - | - |
| 1777634226 | -6.67° C | 92% | 1013.3 hPa | 0 mm | - | - | - |
| 1777633326 | -6.67° C | 92% | 1013.3 hPa | 0 mm | - | - | - |
| 1777632426 | -6.67° C | 92% | 1013.3 hPa | 0 mm | - | - | - |
| 1777631526 | -6.67° C | 92% | 1013.1 hPa | 0 mm | - | - | - |
| 1777630626 | -6.11° C | 91% | 1013 hPa | 0 mm | - | - | - |
| 1777629726 | -6.11° C | 91% | 1012.9 hPa | 0 mm | - | - | - |
| 1777628826 | -5.56° C | 91% | 1012.9 hPa | 0 mm | - | - | - |
* Rain latest hour (hover to see other rain measurements)
** Current wind speed in m/s (hover to see current wind gust speed)